Погода в Поповке

Украина / Полтавская область     49°58′27″N   34°34′57″E
темп.,
°C
ветер,
м/с
пор.,
м/с
влажн.,
%
обл.,
%
осадки,
мм/ч
давл.,
гПа
погр.,
м
4 июля, пн
пн400:00+18ссз337712 0.0 101827
03:00+19сз347389 0.0 101789
06:00+18сз3577100 0.0 1018140
09:00+23ссз346528 0.0 1017373
12:00+27сз33497 0.0 10171434
15:00+28ссз2240100 0.0 10162214
18:00+27всв345146 0.0 1016357
21:00+24всв1248100 0.0 101618
5 июля, вт
вт500:00+20сз1161100 0.0 101611
03:00+19всв226623 0.0 101613
06:00+19ю11726 0.0 101711
09:00+25юз11541 0.0 1017430
12:00+29юз01410 0.0 10162146
15:00+30сз113468 0.0 10152658
18:00+28в454869 0.0 1015387
21:00+24юв345375 0.0 101674
6 июля, ср
ср600:00+21юв33598 0.0 101625
03:00+20ююв34676 0.0 101658
06:00+20ююв23722 0.0 101653
09:00+26ююв34540 0.0 1016427
12:00+30юв44390 0.0 10151963
15:00+32ююв243113 0.0 10142774
18:00+29вюв584427 0.0 1012402
21:00+24юв49554 0.0 1013139
7 июля, чт
чт700:00+22ююв413513 0.0 1013250
03:00+22ююв4845100 0.0 1013148
06:00+21ююв495091 0.0 1013170
09:00+25ююз495296 0.0 1014515
12:00+30ююз563624 0.0 10131606
15:00+32ююз352932 0.0 10133018
18:00+27вюв2344100 0.0 101251
21:00+22ссз6872100 0.1 1014164
8 июля, пт
пт800:00+19всв47795 0.0 101499
03:00+18в226211 0.0 101423
06:00+18в345863 0.0 101458
09:00+25вюв464135 0.0 1014359
12:00+29вюв233081 0.0 10141315
15:00+32в242366 0.0 10123374
18:00+28всв3437100 0.0 101254
21:00+24ссв3451100 0.0 101372